When you browse on this site, cookies collect data to enhance your experience and personalize the content and advertising you see.
Visit our Privacy Policy to learn more. By continuing to use the site, you agree to this use of cookies and data.
  • In Portugal
  • List of Countries
  • For 7 days
  • Water Temperature
  • Satellite Maps
  • Weather Map
  • Weather Widgets
  • user-avatar
    Login

    Hourly Weather Nikolske (Volodarskoe)

    Today, 25 May, Saturday

    Time Temperature Precipitation Wind Pressure Humidity
    00:00 +16°C° 0 mm 2 mps 746 mmHg 71%
    01:00 +16°C° 0 mm 2 mps 746 mmHg 74%
    02:00 +16°C° 0 mm 2 mps 746 mmHg 80%
    03:00 +16°C° 0.5 mm 3 mps 746 mmHg 84%
    04:00 +16°C° 0.5 mm 3 mps 746 mmHg 88%
    05:00 +16°C° 0.5 mm 3 mps 746 mmHg 92%
    06:00 +18°C° 0.3 mm 3 mps 746 mmHg 88%
    07:00 +19°C° 0.3 mm 4 mps 746 mmHg 85%
    08:00 +20°C° 0.3 mm 4 mps 745 mmHg 81%
    09:00 +21°C° 0.6 mm 4 mps 745 mmHg 79%
    10:00 +21°C° 0.6 mm 4 mps 745 mmHg 76%
    11:00 +22°C° 0.6 mm 4 mps 745 mmHg 74%
    12:00 +22°C° 0.7 mm 5 mps 745 mmHg 74%
    13:00 +22°C° 0.7 mm 5 mps 745 mmHg 74%
    14:00 +22°C° 0.7 mm 5 mps 745 mmHg 75%
    15:00 +21°C° 0 mm 5 mps 745 mmHg 75%
    16:00 +21°C° 0 mm 4 mps 745 mmHg 75%
    17:00 +20°C° 0 mm 4 mps 745 mmHg 75%
    18:00 +19°C° 0 mm 4 mps 745 mmHg 78%
    19:00 +18°C° 0 mm 4 mps 745 mmHg 81%
    20:00 +17°C° 0 mm 3 mps 745 mmHg 84%
    21:00 +17°C° 0.1 mm 4 mps 745 mmHg 83%
    22:00 +17°C° 0.1 mm 4 mps 745 mmHg 83%
    23:00 +16°C° 0.1 mm 5 mps 745 mmHg 83%

    Tomorrow, 26 May, Sunday

    Time Temperature Precipitation Wind Pressure Humidity
    00:00 +16°C° 0.1 mm 5 mps 745 mmHg 83%
    01:00 +15°C° 0.1 mm 5 mps 745 mmHg 84%
    02:00 +15°C° 0.1 mm 5 mps 745 mmHg 85%
    03:00 +15°C° 0.2 mm 4 mps 746 mmHg 86%
    04:00 +15°C° 0.2 mm 4 mps 746 mmHg 88%
    05:00 +15°C° 0.2 mm 4 mps 746 mmHg 89%
    06:00 +16°C° 0 mm 5 mps 746 mmHg 87%
    07:00 +17°C° 0 mm 5 mps 746 mmHg 85%
    08:00 +19°C° 0 mm 6 mps 746 mmHg 83%
    09:00 +20°C° 0.9 mm 6 mps 746 mmHg 79%
    10:00 +21°C° 0.9 mm 6 mps 746 mmHg 75%
    11:00 +22°C° 0.9 mm 6 mps 746 mmHg 71%
    12:00 +22°C° 0.5 mm 6 mps 746 mmHg 70%
    13:00 +23°C° 0.5 mm 6 mps 746 mmHg 69%
    14:00 +23°C° 0.5 mm 6 mps 746 mmHg 67%
    15:00 +23°C° 1.1 mm 5 mps 746 mmHg 70%
    16:00 +22°C° 1.1 mm 5 mps 747 mmHg 72%
    17:00 +22°C° 1.1 mm 4 mps 747 mmHg 75%
    18:00 +21°C° 0.1 mm 4 mps 747 mmHg 78%
    19:00 +20°C° 0.1 mm 4 mps 748 mmHg 81%
    20:00 +19°C° 0.1 mm 4 mps 748 mmHg 83%
    21:00 +19°C° 0 mm 4 mps 749 mmHg 85%
    22:00 +18°C° 0 mm 3 mps 749 mmHg 87%
    23:00 +18°C° 0 mm 3 mps 749 mmHg 88%

    Day after tomorrow, 27 May, Monday

    Time Temperature Precipitation Wind Pressure Humidity
    00:00 +17°C° 0 mm 3 mps 750 mmHg 88%
    01:00 +17°C° 0 mm 3 mps 750 mmHg 88%
    02:00 +16°C° 0 mm 3 mps 751 mmHg 88%
    03:00 +16°C° 0 mm 3 mps 751 mmHg 87%
    04:00 +16°C° 0 mm 3 mps 751 mmHg 87%
    05:00 +16°C° 0 mm 3 mps 752 mmHg 86%
    06:00 +18°C° 0 mm 3 mps 752 mmHg 80%
    07:00 +20°C° 0 mm 3 mps 753 mmHg 74%
    08:00 +22°C° 0 mm 3 mps 753 mmHg 68%
    09:00 +24°C° 0 mm 3 mps 753 mmHg 63%
    10:00 +25°C° 0 mm 3 mps 753 mmHg 58%
    11:00 +26°C° 0 mm 3 mps 753 mmHg 53%
    12:00 +26°C° 0 mm 3 mps 753 mmHg 52%
    13:00 +26°C° 0 mm 3 mps 754 mmHg 51%
    14:00 +27°C° 0 mm 3 mps 754 mmHg 50%
    15:00 +26°C° 0 mm 3 mps 754 mmHg 53%
    16:00 +26°C° 0 mm 3 mps 754 mmHg 55%
    17:00 +26°C° 0 mm 3 mps 754 mmHg 58%
    18:00 +24°C° 0 mm 3 mps 754 mmHg 63%
    19:00 +21°C° 0 mm 2 mps 754 mmHg 68%
    20:00 +20°C° 0 mm 2 mps 754 mmHg 72%
    21:00 +19°C° 0 mm 2 mps 754 mmHg 73%
    22:00 +19°C° 0 mm 2 mps 754 mmHg 73%
    23:00 +18°C° 0 mm 2 mps 754 mmHg 74%

    28 May, Tuesday

    Time Temperature Precipitation Wind Pressure Humidity
    00:00 +18°C° 0 mm 2 mps 754 mmHg 74%
    01:00 +18°C° 0 mm 2 mps 755 mmHg 74%
    02:00 +18°C° 0 mm 2 mps 755 mmHg 73%
    03:00 +18°C° 0 mm 2 mps 755 mmHg 74%
    04:00 +19°C° 0 mm 1 mps 755 mmHg 74%
    05:00 +19°C° 0 mm 1 mps 755 mmHg 75%
    06:00 +21°C° 0 mm 1 mps 755 mmHg 70%
    07:00 +23°C° 0 mm 1 mps 755 mmHg 65%
    08:00 +23°C° 0 mm 0 mps 755 mmHg 59%
    09:00 +25°C° 0 mm 1 mps 755 mmHg 57%
    10:00 +26°C° 0 mm 2 mps 755 mmHg 55%
    11:00 +27°C° 0 mm 3 mps 755 mmHg 53%
    12:00 +27°C° 0 mm 3 mps 755 mmHg 53%
    13:00 +27°C° 0 mm 3 mps 755 mmHg 53%
    14:00 +27°C° 0 mm 3 mps 755 mmHg 53%
    15:00 +27°C° 0 mm 3 mps 755 mmHg 55%
    16:00 +26°C° 0 mm 3 mps 755 mmHg 56%
    17:00 +26°C° 0 mm 2 mps 754 mmHg 58%
    18:00 +24°C° 0 mm 2 mps 755 mmHg 60%
    19:00 +23°C° 0 mm 1 mps 755 mmHg 62%
    20:00 +21°C° 0 mm 1 mps 755 mmHg 65%
    21:00 +21°C° 0 mm 1 mps 754 mmHg 65%
    22:00 +20°C° 0 mm 2 mps 754 mmHg 65%
    23:00 +20°C° 0 mm 2 mps 754 mmHg 65%

    29 May, Wednesday

    Time Temperature Precipitation Wind Pressure Humidity
    00:00 +20°C° 0 mm 2 mps 754 mmHg 68%
    01:00 +19°C° 0 mm 2 mps 754 mmHg 71%
    02:00 +19°C° 0 mm 2 mps 754 mmHg 74%
    03:00 +19°C° 0 mm 3 mps 754 mmHg 76%
    04:00 +19°C° 0 mm 3 mps 754 mmHg 78%
    05:00 +19°C° 0 mm 3 mps 754 mmHg 81%
    06:00 +21°C° 0 mm 4 mps 754 mmHg 76%
    07:00 +22°C° 0 mm 5 mps 754 mmHg 71%
    08:00 +25°C° 0 mm 5 mps 754 mmHg 66%
    09:00 +25°C° 0 mm 5 mps 754 mmHg 63%
    10:00 +26°C° 0 mm 6 mps 754 mmHg 60%
    11:00 +27°C° 0 mm 6 mps 754 mmHg 57%
    12:00 +27°C° 0 mm 6 mps 754 mmHg 57%
    13:00 +27°C° 0 mm 6 mps 753 mmHg 57%
    14:00 +28°C° 0 mm 6 mps 753 mmHg 57%
    15:00 +27°C° 0 mm 6 mps 753 mmHg 59%
    16:00 +27°C° 0 mm 5 mps 753 mmHg 62%
    17:00 +27°C° 0 mm 5 mps 753 mmHg 64%
    18:00 +25°C° 0 mm 4 mps 753 mmHg 68%
    19:00 +23°C° 0 mm 4 mps 753 mmHg 73%
    20:00 +22°C° 0 mm 4 mps 753 mmHg 77%
    21:00 +21°C° 0 mm 4 mps 753 mmHg 78%
    22:00 +21°C° 0 mm 4 mps 753 mmHg 78%
    23:00 +21°C° 0 mm 4 mps 753 mmHg 79%

    30 May, Thursday

    Time Temperature Precipitation Wind Pressure Humidity
    00:00 +20°C° 0 mm 4 mps 753 mmHg 78%
    01:00 +20°C° 0 mm 4 mps 753 mmHg 78%
    02:00 +19°C° 0 mm 3 mps 753 mmHg 77%
    03:00 +19°C° 0 mm 3 mps 753 mmHg 77%
    04:00 +19°C° 0 mm 3 mps 753 mmHg 76%
    05:00 +19°C° 0 mm 3 mps 753 mmHg 76%
    06:00 +21°C° 0 mm 4 mps 753 mmHg 70%
    07:00 +22°C° 0 mm 5 mps 753 mmHg 64%
    08:00 +24°C° 0 mm 6 mps 753 mmHg 58%
    09:00 +26°C° 0 mm 6 mps 753 mmHg 55%
    10:00 +27°C° 0 mm 6 mps 753 mmHg 53%
    11:00 +28°C° 0 mm 6 mps 753 mmHg 50%
    12:00 +29°C° 0 mm 6 mps 753 mmHg 50%
    13:00 +29°C° 0 mm 6 mps 753 mmHg 50%
    14:00 +29°C° 0 mm 5 mps 753 mmHg 50%
    15:00 +29°C° 0 mm 5 mps 752 mmHg 53%
    16:00 +29°C° 0 mm 4 mps 752 mmHg 56%
    17:00 +28°C° 0 mm 4 mps 752 mmHg 59%
    18:00 +27°C° 0 mm 4 mps 752 mmHg 62%
    19:00 +26°C° 0 mm 4 mps 753 mmHg 65%
    20:00 +24°C° 0 mm 3 mps 753 mmHg 68%
    21:00 +23°C° 0 mm 4 mps 753 mmHg 68%
    22:00 +22°C° 0 mm 4 mps 753 mmHg 68%
    23:00 +22°C° 0 mm 4 mps 752 mmHg 68%
    Show more